www.pogodaiklimat.ru

Погода и климат >> Архив погоды >> Мозамбик >> Quelimane


ПОГОДА в Quelimane

  • Прогноз погоды в Quelimane
  • Монитор погоды в Quelimane
  • Климат города

АРХИВ ПОГОДЫ в Quelimane

Время (UTC), дата Ветер
(напр.,м/с)
 
Видим.   Явления Облачность Т
(С)
Тd
(С)
f
(%)
Тe
(С)
Тes
(С)
Комфортность P
(гПа)
Po
(гПа)
Тmin
(С)
Tmax
(С)
R
(мм)
R24
(мм)
S
(см)
09 14.10 ЮВ 6 30 км 6/6 600 м
[Cu med, cong Ac trans]
+28.4 +16.6 49 +32 +35 душно 1020.4 1020.0
12 14.10 ЮВ 8 30 км 5/5 600 м
[Cu med, cong Ac trans]
+28.2 +16.3 48 +31 +33 душно 1017.5 1018.0
15 14.10 ЮВ 5 30 км 3/3 600 м
[Cu med, cong Ac trans]
+25.4 +16.7 59 +29 +29 душно 1017.2 1017.0
18 14.10 Ю 2 30 км 1/1 600 м
[Cu hum]
+23.2 +19.4 79 +30 +30 очень
душно
1018.3 1018.0 +29.2
21 14.10 штиль 0 30 км ясно +20.2 +16.9 81 +23 +23 комфорт 1017.8 1018.0
00 15.10 СЗ 1 30 км ясно +18.4 +16.1 86 +20 +20 1016.4 1016.0
03 15.10 СЗ 1 30 км ясно +16.4 +15.0 91 +17 +17 1017.0 1017.0
06 15.10 ЮВ 1 30 км 1/1 600 м
[Cu hum]
+24.2 +17.8 67 +28 +37 душно 1018.4 1018.0 +16.2
09 15.10 ЮВ 3 30 км 4/4 600 м
[Cu med, cong]
+29.8 +17.2 47 +34 +44 очень
душно
1016.4 1016.0
12 15.10 ЮВ 6 30 км ясно +29.2 +15.6 44 +32 +37 душно 1014.2 1014.0
15 15.10 В 6 30 км ясно +26.6 +16.3 53 +30 +30 душно 1013.1 1013.0
18 15.10 В 3 30 км ясно +22.7 +17.2 71 +28 +28 душно 1013.4 1013.0 +31.0
21 15.10 СЗ 1 30 км ясно +19.6 +17.0 85 +23 +23 комфорт 1013.7 1014.0
00 16.10 СВ 3 30 км ясно +18.0 +16.3 90 +18 +18 1012.2 1012.0
03 16.10 В 4 30 км ясно +17.4 +15.7 90 +17 +17 1012.7 1013.0
06 16.10 СВ 6 30 км ясно +25.2 +16.1 57 +29 +32 душно 1013.7 1014.0 +17.0
09 16.10 СВ 3 30 км ясно +34.0 +14.2 30 +35 +53 опасность
солнечного
удара
1011.2 1011.0
12 16.10 В 8 30 км ясно +33.6 +18.7 41 +38 +41 очень
душно
1008.4 1008.0
15 16.10 В 8 30 км ясно +30.0 +15.9 43 +33 +33 душно 1008.2 1008.0
18 16.10 В 6 30 км ясно +25.4 +21.5 79 +32 +32 очень
душно
1010.2 1010.0 +35.2
21 16.10 В 4 30 км ясно +24.0 +21.0 83 +30 +30 очень
душно
1010.7 1011.0
00 17.10 В 2 30 км ясно +22.0 +18.5 81 +27 +27 душно 1009.7 1010.0
03 17.10 В 4 30 км ясно +20.6 +17.0 80 +24 +24 комфорт 1009.4 1009.0
06 17.10 СВ 5 30 км ясно +27.4 +17.3 54 +31 +36 душно 1009.4 1009.0 +20.2
09 17.10 СВ 5 30 км ясно +38.6 +14.0 23 +39 +51 опасность
солнечного
удара
1007.0 1007.0
12 17.10 В 7 30 км ясно +38.0 +17.6 30 +41 +45 опасность
перегрева
1003.6 1004.0
15 17.10 В 7 30 км ясно +31.0 +18.7 48 +36 +36 очень
душно
1004.2 1004.0
18 17.10 В 6 30 км ясно +27.8 +21.2 67 +35 +35 очень
душно
1006.1 1006.0 +42.2
21 17.10 В 5 30 км ясно +26.0 +22.8 83 +35 +35 очень
душно
1005.6 1006.0
00 18.10 В 4 30 км ясно +25.2 +22.2 83 +33 +33 очень
душно
1004.4 1004.0
03 18.10 СВ 1 30 км ясно +21.8 +18.6 82 +27 +27 душно 1005.8 1006.0
06 18.10 ЮЗ 2 30 км ясно +26.4 +19.3 65 +32 +40 очень
душно
1010.1 1010.0 +21.6
12 18.10 Ю 6 30 км 8/8 600 м
[Cu med, cong]
+30.4 +22.2 62 +39 +41 очень
душно
1010.2 1010.0
15 18.10 Ю 5 30 км 8/8 600 м
[Cu med, cong]
+27.8 +22.8 74 +37 +37 очень
душно
1011.3 1011.0
18 18.10 Ю 3 30 км 8/8 600 м
[Cu med, cong]
+26.6 +23.4 83 +36 +36 очень
душно
1013.1 1013.0 +34.5
21 18.10 ЮВ 3 30 км 6/6 600 м
[Cu med, cong]
+26.6 +24.0 86 +37 +37 очень
душно
1014.0 1014.0
00 19.10 ЮВ 3 30 км 6/6 600 м
[Cu med, cong]
+25.4 +24.0 92 +35 +35 очень
душно
1012.5 1013.0
03 19.10 ЮВ 2 30 км 6/6 600 м
[Cu med, cong]
+25.2 +23.7 91 +34 +34 очень
душно
1013.4 1013.0
06 19.10 В 3 30 км 6/6 600 м
[Cu med, cong]
+27.4 +24.2 83 +38 +41 очень
душно
1015.0 1015.0 +24.8
09 19.10 ЮВ 5 30 км 9/6 600 м
[Cu med, cong Ac trans]
+30.0 +22.7 65 +40 +42 очень
душно
1013.9 1014.0
12 19.10 ЮВ 5 30 км 9/6 600 м
[Cu med, cong Ac trans]
+29.4 +22.7 67 +39 +41 очень
душно
1011.9 1012.0
15 19.10 ЮВ 6 30 км ясно +28.0 +22.7 73 +37 +37 очень
душно
1010.9 1011.0
21 19.10 В 5 30 км 1/1 600 м
[Cu hum]
+25.8 +23.8 89 +35 +35 очень
душно
1013.1 1013.0
00 20.10 В 3 30 км 6/6 600 м
[Cu med, cong]
+26.2 +23.9 87 +36 +36 очень
душно
1012.2 1012.0
03 20.10 В 3 30 км 8/8 600 м
[Cu med, cong]
+26.2 +23.9 87 +36 +36 очень
душно
1013.0 1013.0
06 20.10 СВ 3 30 км 1/1 600 м
[Cu hum]
+28.6 +23.7 75 +39 +46 очень
душно
1014.4 1014.0 +25.5
09 20.10 СВ 5 30 км ясно +35.4 +22.8 48 +45 +58 опасность
перегрева
1013.2 1013.0
12 20.10 ЮВ 9 30 км ясно +33.6 +21.9 50 +42 +44 опасность
перегрева
1011.2 1011.0
15 20.10 В 7 30 км ясно +29.8 +22.8 66 +39 +40 очень
душно
1011.0 1011.0
18 20.10 В 7 30 км ясно +27.6 +22.6 74 +36 +36 очень
душно
1013.3 1013.0 +36.6
21 20.10 В 7 30 км ясно +26.6 +23.1 81 +36 +36 очень
душно
1013.7 1014.0
00 21.10 ЮВ 3 30 км ясно +25.6 +23.6 89 +35 +35 очень
душно
1013.4 1013.0
03 21.10 ЮВ 3 30 км 4/4 600 м
[Cu med, cong]
+25.6 +23.6 89 +35 +35 очень
душно
1015.9 1016.0
06 21.10 В 7 30 км 4/4 600 м
[Cu med, cong]
+29.0 +23.5 72 +39 +41 очень
душно
1018.0 1018.0 +25.4

 

Местоположение метеостанции Quelimane (Мозамбик): широта -17.88 долгота 36.88 высота над уровнем моря 16 м.

В архиве по умолчанию представлена погода в Quelimane за последнюю неделю. Архивные данные за месяц целиком и за предыдущие месяцы, начиная с января 2011 года, Вы можете получить, выбрав интересующий диапазон дат из раскрывающегося списка и нажав кнопку "Ввод!".

Внимание! Время в таблицах - всемирное. Для получения местного времени необходимо прибавить поправку, которая в Quelimane равна 2 ч.

Смотрите также архив погоды в соседних городах и на ближайших метеорологических станциях:

Погода в Pebane (Мозамбик) (151 км)
Погода в Caia (Мозамбик) (164 км)
Погода в Beira (Мозамбик) (298 км)
Погода в Chichiri (Малави) (306 км)
Погода в Chileka (Малави) (318 км)
Погода в Cuamba (Мозамбик) (341 км)
Погода в Angoche (Мозамбик) (370 км)
Погода в Chimoio (Мозамбик) (385 км)
Погода в Catandica (Мозамбик) (393 км)
Погода в Tete Chingodze (Мозамбик) (396 км)

Пояснения к столбцам:

Ветер - указаны скорость ветра в м/с - средняя за 10 мин, порывы в срок и между сроками (в фигурных скобках) и направление, откуда дует ветер: С - северный, СВ - северо-восточный, В - восточный, ЮВ - юго-восточный, Ю - южный, ЮЗ - юго-западный, З - западный, СЗ - северо-западный.
Видимость - горизонтальная дальность видимости в метрах или километрах. При видимости от 1 до 10 км при отсутствии осадков обычно наблюдается дымка, при ухудшении видимости до 1 км и менее - туман. В сухую погоду видимость может ухудшаться дымом, пылью или мглою.
Явления - указаны атмосферные явления, наблюдавшиеся в срок или в последний час перед сроком; фигурными скобками обозначены явления, наблюдавшиеся между сроками (за 1-3 часа до срока); квадратными скобками обозначены град или гололедные отложения с указанием их диаметра в мм.
Облачность - указаны через наклонную черту общая и нижняя облачность в баллах и высота нижней границы облаков в метрах; квадратными скобками обозначены формы облаков: Ci - перистые, Cs - перисто-слоистые, Cc - перисто-кучевые, Ac - высококучевые, As - высокослоистые, Sc - слоисто-кучевые, Ns - слоисто-дождевые, Cu - кучевые, Cb - кучево-дождевые. Подробнее классификацию облаков см. в Атласе облаков (PDF).
T - Температура воздуха - температура, измеренная на высоте 2 м над землей.
Td - Температура точки росы - температура, при понижении до которой содержащийся в воздухе водяной пар достигнет насыщения.
f - Относительная влажность воздуха - влажноcть воздуха, измеренная на высоте 2 м над землей.
Te - Эффективная температура - температура, которую ощущает одетый по сезону человек в тени. Характеристика душности погоды. При расчете учитывается влияние влажности воздуха и скорости ветра на теплоощущения человека.
Tes - Эффективная температура на солнце - температура, которую ощущает человек, с поправкой на солнечный нагрев. Характеристика знойности погоды. Зависит от высоты солнца над горизонтом, облачности и скорости ветра. Ночью, в пасмурную погоду, а также при ветре 12 м/с и более поправка равна нулю.
P - Атмосферное давление - приведенное к уровню моря атмосферное давление.
Po - Атмосферное давление - измеренное на уровне метеостанции атмосферное давление.
Tmin - Минимальная температура - минимум температуры воздуха на высоте 2 м над землей.
Tmax - Максимальная температура - максимум температуры воздуха на высоте 2 м над землей.
R - Количество осадков - Количество выпавших осадков за период времени, мм. При наведении курсора мыши на число - период времени, за который выпало указанное количество осадков.
R24 - Количество осадков - Количество выпавших осадков за 24 часа, мм.
S - Снежный покров - Высота снежного покрова, см. При наведении курсора мыши на число - состояние снежного покрова и степень покрытия местности в баллах.